GW0458 Weather Reports


Display with metric or nautical units.
time (UTC)temp
F
wind
direction
speed
MPH
gust
MPH
rain 1hr
in
rain 24hr
in
rain mn
in
humidity
%
barometer
mb
20260906224840 73 233 3.0 5.0 0.00 0.00 0.00 52 1022.4
20260906221836 74 209 1.0 1.0 0.00 0.00 0.00 52 1022.6
20260906214836 73 217 0.0 0.0 0.00 0.00 0.00 53 1022.6
20260906211833 75 244 1.0 2.0 0.00 0.00 0.00 50 1022.5
20260906204829 75 233 1.0 2.0 0.00 0.00 0.00 53 1023.0
20260906201826 72 222 1.0 2.0 0.00 0.00 0.00 58 1022.9
20260906194822 73 192 1.0 2.0 0.00 0.00 0.00 55 1023.2
20260906191820 73 220 2.0 3.0 0.00 0.00 0.00 57 1023.4
20260906184820 68 211 1.0 1.0 0.00 0.00 0.00 64 1023.8
20260906181819 68 231 1.0 1.0 0.00 0.00 0.00 69 1024.1
20260906174815 68 219 1.0 2.0 0.00 0.00 0.00 71 1023.9
20260906171813 66 261 3.0 3.0 0.00 0.00 0.00 71 1024.3
20260906164813 63 203 0.0 0.0 0.00 0.00 0.00 78 1024.3
20260906161808 56 215 1.0 1.0 0.00 0.00 0.00 87 1024.6
20260906154807 55 201 0.0 0.0 0.00 0.00 0.00 90 1024.7
20260906151807 52 205 0.0 0.0 0.00 0.00 0.00 97 1024.0
20260906144804 50 199 0.0 0.0 0.00 0.00 0.00 99 1024.4
20260906141801 47 207 0.0 0.0 0.00 0.00 0.00 99 1024.3
20260906134757 47 191 1.0 1.0 0.00 0.00 0.00 99 1024.0
20260906131753 48 198 0.0 0.0 0.00 0.00 0.00 99 1024.1
20260906124752 49 181 0.0 1.0 0.00 0.00 0.00 99 1024.1
20260906121751 48 198 1.0 1.0 0.00 0.00 0.00 99 1024.3
20260906114746 50 198 0.0 0.0 0.00 0.00 0.00 99 1024.3
20260906111744 49 201 0.0 0.0 0.00 0.00 0.00 99 1024.1
20260906104742 49 207 0.0 0.0 0.00 0.00 0.00 99 1023.8
20260906101741 50 200 0.0 0.0 0.00 0.00 0.00 99 1024.0
20260906094738 50 200 0.0 0.0 0.00 0.00 0.00 99 1024.1
20260906091733 50 212 0.0 0.0 0.00 0.00 0.00 99 1024.0
20260906084730 51 193 0.0 0.0 0.00 0.00 0.00 99 1023.8
20260906081730 52 202 0.0 0.0 0.00 0.00 0.00 99 1024.1
20260906074730 52 203 1.0 1.0 0.00 0.00 0.00 99 1024.0
20260906071729 53 196 0.0 0.0 0.00 0.00 0.00 98 1024.3
20260906064728 53 199 0.0 0.0 0.00 0.00 0.00 98 1024.5
20260906061728 54 199 0.0 0.0 0.00 0.00 0.00 97 1024.5
20260906054726 55 199 0.0 0.0 0.00 0.00 0.00 96 1024.7
20260906051725 56 206 0.0 0.0 0.00 0.00 0.00 95 1024.6
20260906044722 57 199 2.0 2.0 0.00 0.00 0.00 91 1024.8
20260906041721 59 205 0.0 0.0 0.00 0.00 0.00 87 1024.8
20260906034721 60 203 0.0 0.0 0.00 0.00 0.00 85 1024.8
20260906031721 62 204 0.0 0.0 0.00 0.00 0.00 78 1024.3
20260906024716 64 186 0.0 0.0 0.00 0.00 0.00 73 1024.3
20260906021717 66 182 0.0 0.0 0.00 0.00 0.00 68 1023.8
20260906014716 67 206 0.0 0.0 0.00 0.00 0.00 65 1023.7
20260906011716 69 205 0.0 0.0 0.00 0.00 0.00 61 1023.6
20260906004713 69 206 0.0 0.0 0.00 0.00 0.00 60 1023.7
20260906001707 68 212 0.0 0.0 0.00 0.00 0.00 65 1023.6
20260905234705 68 217 0.0 0.0 0.00 0.00 0.00 61 1023.9
20260905231704 71 213 0.0 1.0 0.00 0.00 0.00 56 1023.9